Flag for USA

Past Weather in Jacksonville Beach, Florida, USA — Yesterday and Last 2 Weeks

Now
78 °F

Heavy rain. Fog.


Feels Like: 81 °F
Forecast: 82 / 76 °F
Wind: 3 mph from South

Location: Craig Municipal Airport
Current Time: Sep 27, 2020 at 6:50:43 pm
Latest Report: Sep 27, 2020 at 6:19 pm
Visibility: 2 mi
Pressure29.95 "Hg
Humidity: 90%
Dew Point: 75 °F
Location of Jacksonville BeachLocation

Past Weather in Jacksonville Beach — Graph

°F

Jacksonville Beach Temperature Yesterday

Maximum temperature yesterday: 91 °F (at 1:53 pm)
Minimum temperature yesterday: 77 °F (at 5:53 am)
Average temperature yesterday: 82 °F

High & Low Weather Summary for the Past Weeks

 TemperatureHumidityPressure
High91 °F (Sep 25, 2:53 pm)97% (Sep 15, 11:08 pm)30.20 "Hg (Sep 15, 11:08 pm)
Low64 °F (Sep 23, 5:53 am)45% (Sep 22, 3:53 pm)29.74 "Hg (Sep 17, 5:53 pm)
Average79 °F80%29.99 "Hg
* Reported Sep 12 4:53 pm — Sep 27 4:53 pm, Jacksonville Beach. Weather by CustomWeather, © 2020

Note: Actual official high and low records may vary slightly from our data, if they occured in-between our weather recording intervals... More about our weather records

Jacksonville Beach Weather History for the Previous 24 Hours

Scroll right to see more
 ConditionsComfort  
Time TempWeatherWind HumidityBarometerVisibility
4:53 pm
Sun, Sep 27
78 °FLight rain. Mostly cloudy.6 mph84%29.93 "Hg9 mi
4:27 pm78 °FMostly cloudy.7 mph84%29.94 "Hg10 mi
4:11 pm78 °FLight rain. Cloudy.3 mph84%29.94 "Hg7 mi
4:04 pm77 °FLight rain. Mostly cloudy.3 mph88%29.94 "Hg7 mi
3:16 pm79 °FLight rain. Fog.5 mph94%29.95 "Hg4 mi
2:53 pm79 °FRain. Fog.No wind90%29.95 "Hg3 mi
2:13 pm80 °FLight rain. Partly sunny.7 mph85%29.96 "Hg7 mi
1:53 pm81 °FThundershowers. Partly sunny.5 mph82%29.97 "Hg8 mi
12:53 pm83 °FPartly sunny.10 mph77%29.99 "Hg10 mi
12:25 pm83 °FPartly sunny.9 mph77%30.00 "Hg10 mi
11:53 am83 °FPartly sunny.9 mph77%29.99 "Hg9 mi
10:53 am81 °FPartly sunny.9 mph82%29.99 "Hg9 mi
9:53 am81 °FPartly sunny.9 mph85%29.99 "Hg7 mi
9:32 am81 °FMostly cloudy.7 mph88%29.99 "Hg7 mi
9:21 am81 °FBroken clouds.6 mph88%29.99 "Hg7 mi
8:53 am80 °FScattered clouds.5 mph90%29.98 "Hg7 mi
7:54 am77 °FFog.No wind90%29.98 "Hg5 mi
6:53 am75 °FPassing clouds.No wind94%29.96 "Hg8 mi
5:53 am75 °FPartly cloudy.No wind94%29.94 "Hg8 mi
4:53 am75 °FPassing clouds.No wind94%29.94 "Hg7 mi
3:53 am74 °FFog.No wind94%29.94 "Hg6 mi
2:53 am76 °FPassing clouds.No wind91%29.96 "Hg8 mi
1:53 am76 °FClear.No wind91%29.98 "Hg8 mi
12:53 am76 °FClear.No wind91%29.99 "Hg9 mi
11:53 pm
Sat, Sep 26
77 °FClear.No wind90%30.00 "Hg9 mi
10:53 pm78 °FClear.No wind90%30.00 "Hg9 mi
9:53 pm78 °FClear.No wind90%29.99 "Hg9 mi
8:53 pm79 °FPassing clouds.No wind88%29.98 "Hg9 mi
7:53 pm80 °FClear.3 mph85%29.97 "Hg10 mi
6:53 pm82 °FSunny.7 mph79%29.95 "Hg10 mi
Weather by CustomWeather, © 2020

See weather overview